Regional Weather Roundup
Issued by NWS Albany, NY

Home | Current Version | Previous Version | Text Only | Print | Product List | Glossary On
Versions: 1 2 3 4 5 6 7 8 9 10 11 12 13 14 15 16 17 18 19 20 21 22 23 24 25 26 27
000
ASUS41 KALY 250910
RWRALY

NEW YORK STATE HOURLY WEATHER ROUNDUP
NATIONAL WEATHER SERVICE ALBANY NY
500 AM EDT MON JUL 25 2016

NOTE: "FAIR" INDICATES FEW OR NO CLOUDS BELOW 12,000 FEET WITH NO
SIGNIFICANT WEATHER AND/OR NO OBSTRUCTIONS TO VISIBILITY.

NYZ032-033-038>043-046>054-057>066-NYZ062>081-082-084-251000-
EAST


CITY           SKY/WX    TMP DP  RH WIND       PRES   REMARKS
ALBANY         CLOUDY    67  64  90 CALM      29.92F
GLENS FALLS    CLOUDY    64  61  90 CALM      29.93S FOG
POUGHKEEPSIE   CLOUDY    71  65  81 CALM      29.92S
NEWBURGH       CLEAR     72  68  88 CALM      29.95S
MONTGOMERY     CLOUDY    69  66  90 CALM      29.94S
WHITE PLAINS   CLOUDY    73  68  84 CALM      29.95R
ISLIP          CLOUDY    76  73  91 S7        29.95S
NEW YORK CITY  CLOUDY    81  67  62 S10       29.92F
CENTRAL PARK   CLOUDY    80  65  59 VRB3      29.96F
$$

NYZ005>009-017-018-044>046-055-056-251000-
CENTRAL


CITY           SKY/WX    TMP DP  RH WIND       PRES   REMARKS
FULTON         CLOUDY    69  62  78 SE3       29.91R
SYRACUSE       MOCLDY    65  62  90 NE3       29.90R
ROME           CLEAR     64  62  93 CALM      29.93R
ELMIRA         CLEAR     63  58  83 CALM      29.95R
BINGHAMTON     CLEAR     67  61  81 S3        29.97S
MONTICELLO     PTCLDY    66  61  82 CALM      30.00S
$$

NYZ026>034-041>043-087-251000-
NORTH


CITY           SKY/WX    TMP DP  RH WIND       PRES   REMARKS
WATERTOWN      PTCLDY    66  57  72 NW5       29.88R
FORT DRUM      NOT AVBL
MASSENA        PTCLDY    58  57  97 CALM      29.89F
SARANAC LAKE   CLEAR     52  50  93 CALM      29.96R
PLATTSBURGH    CLEAR     60  58  92 CALM      29.90F
$$

NYZ001>004-010>016-019>021-085-251000-
WEST


CITY           SKY/WX    TMP DP  RH WIND       PRES   REMARKS
NIAGARA FALLS  MOCLDY    77  68  73 SW12      29.88S
BUFFALO        MOCLDY    74  67  78 S6        29.89F
DUNKIRK        PTCLDY    76  69  79 S15       29.90F
JAMESTOWN      PTCLDY    68  64  88 S6        29.99S
WELLSVILLE     MOCLDY    71  65  81 SW8       30.03R
ROCHESTER      MOCLDY    73  63  70 SW8       29.89F
PENN YAN       PTCLDY    70  63  78 SW5       29.94R
$$

             KEY
       WCI = WIND CHILL INDEX
       VSB = VISIBILITY
       HX  = HEAT INDEX
$$




USA.gov is the U.S. government's official web portal to all federal, state and local government web resources and services.